This is the latest recevied weather packets stored in our database for station/object IQ5KG. If no packets are shown the sender has not sent any weather packets the latest 10 day(s).
| Time | Temp. | Humidity | Pressure | Rain* | Wind** | Luminosity | Snow |
|---|---|---|---|---|---|---|---|
| 1777712556 | 20° C | 37% | 1025.7 hPa | 0 mm | - | - | - |
| 1777711656 | 20° C | 40% | 1025.6 hPa | 0 mm | - | - | - |
| 1777710755 | 20.56° C | 45% | 1025.7 hPa | 0 mm | - | - | - |
| 1777709855 | 18.89° C | 48% | 1025.9 hPa | 0 mm | - | - | - |
| 1777708955 | 17.22° C | 47% | 1025.9 hPa | 0 mm | - | - | - |
| 1777708055 | 16.11° C | 50% | 1026 hPa | 0 mm | - | - | - |
| 1777707154 | 15.56° C | 51% | 1026.1 hPa | 0 mm | - | - | - |
| 1777706255 | 15° C | 53% | 1026.1 hPa | 0 mm | - | - | - |
| 1777705354 | 15° C | 52% | 1026.2 hPa | 0 mm | - | - | - |
| 1777704454 | 13.89° C | 56% | 1026.2 hPa | 0 mm | - | - | - |
| 1777703554 | 15° C | 50% | 1026 hPa | 0 mm | - | - | - |
| 1777702653 | 15.56° C | 54% | 1026.2 hPa | 0 mm | - | - | - |
| 1777701754 | 14.44° C | 46% | 1026.3 hPa | 0 mm | - | - | - |
| 1777700854 | 13.89° C | 47% | 1026 hPa | 0 mm | - | - | - |
| 1777699954 | 12.78° C | 54% | 1026.1 hPa | 0 mm | - | - | - |
| 1777699053 | 12.22° C | 52% | 1026.1 hPa | 0 mm | - | - | - |
| 1777698154 | 12.22° C | 53% | 1026 hPa | 0 mm | - | - | - |
| 1777697253 | 12.78° C | 49% | 1025.9 hPa | 0 mm | - | - | - |
| 1777696353 | 12.22° C | 51% | 1026 hPa | 0 mm | - | - | - |
| 1777695453 | 12.78° C | 45% | 1025.7 hPa | 0 mm | - | - | - |
| 1777694553 | 12.78° C | 45% | 1025.9 hPa | 0 mm | - | - | - |
| 1777693653 | 12.78° C | 44% | 1025.9 hPa | 0 mm | - | - | - |
| 1777692753 | 12.78° C | 43% | 1025.8 hPa | 0 mm | - | - | - |
| 1777691854 | 11.67° C | 48% | 1025.9 hPa | 0 mm | - | - | - |
| 1777690954 | 11.11° C | 51% | 1026 hPa | 0 mm | - | - | - |
* Rain latest hour (hover to see other rain measurements)
** Current wind speed in m/s (hover to see current wind gust speed)